Powrót do katalogu

FENGYUN 1C DEB

AktywnySSO
NORAD 38168·DEBRIS·🇨🇳 China

Wystrzelony May 10, 1999 z Taiyuan Satellite Launch Center

Loading…

Następne Przeloty (najbliższe 24 godziny)

TLE

Starzejące sięSource: Space-Track

Epoka: Sep 10, 2026, 02:09 UTC

1 38168U 99025ERR 26253.09004879  .00002851  00000-0  96968-3 0  9993
2 38168  98.7899 355.8776 0038912  33.9069 326.4593 14.36942783683592

Śledź FENGYUN 1C DEB w czasie rzeczywistym z AllMySat

Download on the App Store